{"data":{"norad_id":67198,"intl_designator":"2025-304G","name":"STARLINK-36267","alt_names":[],"object_type":"PAYLOAD","status":"ACTIVE","operator":null,"country":"US","launch_date":"2025-12-17","launch_site_code":"AFWTR","launch_vehicle":null,"mission":null,"orbit_class":"UNKNOWN","rcs_meters":null,"size_class":null,"mass_kg":null,"dimensions":null,"purposes":["comms"],"wikipedia_slug":null,"has_3d_model":false,"image_url":null,"decayed_at":null,"tle_current":{"epoch":"2026-09-20T11:56:06.924768Z","epoch_age_seconds":79293,"freshness":"FRESH","line1":"1 67198U 25304G   26263.49730237  .00002698  00000+0  23378-3 0  9999","line2":"2 67198  70.0015  43.3337 0003030 266.7098  93.3714 14.98335173 43034","mean_motion":14.98335173,"eccentricity":0.000303,"inclination_deg":70.0015,"raan_deg":43.3337,"arg_perigee_deg":266.7098,"mean_anomaly_deg":93.3714,"bstar":0.00023378,"rev_number":4303,"period_min":96.106667316419,"perigee_km":569.93399031581,"apogee_km":574.14579751352,"semimajor_km":6950.1768939147,"source":"CELESTRAK","updated_at":"2026-09-21T09:00:36.136324Z"}}}